Regional Weather Roundup
Issued by NWS Charleston, SC

Current Version | Previous Version | Graphics & Text | Print | Product List | Glossary Off
Versions: 1 2 3 4 5 6 7 8 9 10 11 12 13 14 15 16 17 18 19 20 21 22 23 24 25 26 27 28 29 30 31 32 33 34 35 36 37 38 39 40 41 42 43 44 45 46 47 48 49 50

686
ASUS42 KCHS 162012
RWRCHS

REGIONAL WEATHER ROUNDUP
NATIONAL WEATHER SERVICE CHARLESTON SC
300 PM EST MON JAN 16 2017

NOTE: "FAIR" INDICATES FEW OR NO CLOUDS BELOW 12,000 FEET WITH NO
SIGNIFICANT WEATHER AND/OR OBSTRUCTIONS TO VISIBILITY.

NOT ALL STATIONS ARE QUALITY CONTROLLED. USE DATA WITH CAUTION...
ESPECIALLY DEWPOINT OBSERVATIONS.

SCZ027-030-031-034>040-042>050-162100-
...SOUTHEAST SOUTH CAROLINA...

CITY           SKY/WX    TMP DP  RH WIND       PRES   REMARKS
N CHARLESTON   CLOUDY    63  57  81 N7        30.30F
WATERFRONT PRK   N/A     58  57  96 VRB3      30.31F
MOUNT PLEASANT CLOUDY    63  59  88 N3        30.32R
JOHNS ISLAND   CLOUDY    64  61  88 N5        30.31F
PINOPOLIS        N/A     55  55 100 VRB3      30.24S
MONCKS CORNER  CLOUDY    57  55  94 CALM      30.32S
SUMMERVILLE    CLOUDY    61  61 100 E3        30.32F
BEAUFORT MCAS  MOSUNNY   67  59  75 E7        30.29F
BEAUFORT ARPT  FAIR      66  59  77 NE8       30.29S HAZE
HILTON HEAD IS MOSUNNY   68  61  77 NE6       30.29F
WALTERBORO     CLOUDY    66  66 100 E6        30.31S
ALLENDALE      FAIR      70  57  64 CALM      30.28S

...SOUTHERN MIDLANDS AND PEE DEE...

CITY           SKY/WX    TMP DP  RH WIND       PRES   REMARKS
GEORGETOWN     CLOUDY    55  52  88 NE9       30.34S
KINGSTREE      CLOUDY    54  52  94 N3        30.34S
ORANGEBURG     CLOUDY    58  55  90 NE6       30.31F
BARNWELL       FAIR      66  59  77 NE7       30.30S
AIKEN          CLOUDY    55  54  94 NE6       30.34S FOG
MANNING        CLOUDY    55  52  88 N5        30.33F
COLUMBIA       CLOUDY    58  53  84 E8        30.32S
SUMTER         CLOUDY    54  51  90 E3        30.31F
FLORENCE       CLOUDY    53  51  93 E3        30.35S FOG
MYRTLE BEACH   CLOUDY    61  52  72 E5        30.35F
N MYRTLE BEACH PTSUNNY   61  50  67 NE6       30.33F

$$

GAZ063-065-086>088-099>101-113>116-118-119-134>141-150-162100-
...SOUTHEAST GEORGIA...

CITY           SKY/WX    TMP DP  RH WIND       PRES   REMARKS
SAVANNAH ARPT  MOSUNNY   74  58  57 VRB7      30.27F
HUNTER AAF     SUNNY     72  60  65 E10       30.25F
FORT STEWART   PTSUNNY   73  60  63 CALM      30.24F
STATESBORO     MOSUNNY   76  58  54 S7        30.26S
SYLVANIA       MOCLDY   N/A N/A N/A CALM      30.27F
CLAXTON        FAIR      76  66  69 CALM      30.25F

...CSRA...CENTRAL AND FAR SOUTHEAST GEORGIA...

CITY           SKY/WX    TMP DP  RH WIND       PRES   REMARKS
THOMSON        SUNNY     70  60  69 CALM      30.32S
AUGUSTA-BUSH   PTSUNNY   73  56  54 E9        30.26F
AUGUSTA-DANIEL MOSUNNY   71  55  56 E8        30.28F
SWAINSBORO     MOCLDY    77  52  41 S10       30.25F
VIDALIA        SUNNY     79  54  41 SW10      30.24F
EASTMAN        CLOUDY    78  34  20 S8        30.26S
HAZLEHURST     FAIR      77  54  44 S6        30.23S
ALMA           CLOUDY    77  54  44 S13       30.24F
WAYCROSS       PTSUNNY   80  58  47 S9        30.24F
JESUP          MOCLDY    77  55  47 S8        30.25F
BAXLEY         FAIR      77  59  53 SW9       30.24F
BRUNSWICK      PTSUNNY   70  63  78 E13       30.28S
SAINT SIMONS   MOSUNNY   67  59  75 E15       30.27F

$$

SCZ027-028-034-036>038-045-046-048>050-GAZ119-141-162100-
...LAKE AND SUPPLEMENTAL COASTAL OBSERVATIONS...

STATION/POSITION TIME  TEMP    WIND        PRES    WAVE   SWELL
                       AIR SEA DIR/SP/G            HT/PER HT/PER/DIR
                 (UTC) (F)     (DEG/KT/KT) (MB)    (FT/S) (FT/S/D)
WINYAH BAY       NOT AVBL
LAKE MURRAY      1920   56      CALM  /  3 1026.1
ACE BASIN NERRS  1845   65      20/  3     1026.0
FORT PULASKI     1948           90/ 10/ 12 1025.8F
SAPELO ISLAND    1900   70      80/  8     1025.0

$$

ANZ835-935-AMZ111-154-330-350-352-354-370-450-454-472-162100-
...C-MAN AND BUOY OBSERVATIONS...

STATION/POSITION TIME  TEMP    WIND        PRES    WAVE   SWELL
                       AIR SEA DIR/SP/G            HT/PER HT/PER/DIR
                 (UTC) (F)     (DEG/KT/KT) (MB)    (FT/S) (FT/S/D)
BUOY 41004       1850   66 71   30/ 17/ 19 1025.1    4/ 5   2/120/ 9
BUOY 41008       1850   61 61   20/  8/ 10 1025.3    2/ 9   2/110/ 9
FOLLY BEACH CMAN 1900   56      50/  6/  7 1027.2F
CAPERS NEARSHORE 1908   53 54   40/ 14/ 17 1026.2F
FRIPP NEARSHORE  1908   57 56   50/  8/ 10 1025.9F


STATION/POSITION TIME  TEMP    WIND        PRES    WAVE   SWELL
                       AIR SEA DIR/SP/G            HT/PER HT/PER/DIR
                 (UTC) (F)     (DEG/KT/KT) (MB)    (FT/S) (FT/S/D)
5E ST. MARYS GA  1930      63                N/A     2/11   2/100/11
FRYING PAN BUOY  1950   63 71   20/ 16/ 19 1026.7F   5/ 6   2/100/ 8
BUOY 41025       1950   54 74   10/ 16/ 19 1027.8R   4/ 8   2/ 90/ 8
CAPE LOOKOUT NC  1900   52      10/ 12/ 14 1027.9F
BUOY 41002       1850   69 72  110/  6/  8 1026.1    4/ 8   3/ 30/ 8
BUOY 41010       NOT AVBL
ST AUGUSTINE FL  2000   68 66   80/  7/  7 1025.2F


$$




USA.gov is the U.S. government's official web portal to all federal, state and local government web resources and services.